Regional Weather Roundup
Issued by NWS Goodland, KS

Home | Current Version | Previous Version | Text Only | Print | Product List | Glossary On
Versions: 1 2 3 4 5 6 7 8 9 10 11 12 13 14 15 16 17 18 19 20 21 22 23 24 25 26 27 28 29 30 31 32 33 34 35 36 37 38 39 40 41 42 43 44 45 46 47 48 49 50
000
ASUS43 KGLD 270708
RWRGLD

GOODLAND FORECAST AREA HOURLY WEATHER ROUNDUP
NATIONAL WEATHER SERVICE GOODLAND KS
100 AM MDT FRI MAY 27 2016

...OFFICIAL OBSERVATIONS...

CITY           SKY/WX    TMP DP  RH WIND       PRES   REMARKS
GOODLAND KS    CLOUDY    51  48  89 W7        29.78R
HILL CITY KS   CLOUDY    59  56  89 SE9       29.75F
IMPERIAL NEB   PTCLDY    53  49  86 NE7       29.74R
MCCOOK NEB     PTCLDY    53  51  93 SE10      29.76R
AKRON CO       RAIN      49  46  90 NW14      29.82F
BURLINGTON CO  PTCLDY    46  42  86 NW9       29.79F
LIMON CO       LGT RAIN  45  43  93 NW12      29.87R
$$

...UNOFFICIAL OBSERVATIONS...

CITY           SKY/WX    TMP DP  RH WIND       PRES   REMARKS
GOVE KS          N/A     54  32  43 MISG        N/A
LENORA KS        N/A     55  32  41 MISG        N/A
SHARON SPRINGS   N/A     47  45  92 N5          N/A
KIT CARSON CO    N/A     47  42  82 MISG        N/A
YUMA CO          N/A     50  47  90 N12G18      N/A
$$




USA.gov is the U.S. government's official web portal to all federal, state and local government web resources and services.